User: anonymous   Login
Location: Unspecified
(0.0000°N, 0.0000°E)
Time: 14:31:42
(UTC+00:00)
Language:

GOSAT - Orbit

View from above orbital plane
View from above orbital plane
View from above satellite
View from above satellite

Ground track
Ground track

The orbit data is extracted from the following two-line orbital elements,

1 33492U 09002A   16340.04577930 -.00000117  00000-0 -12085-4 0  9992
2 33492  98.1106  87.4856 0001346  86.8976 273.2378 14.67525849421352
Epoch (UTC): 05 December 2016 01:05:55
Eccentricity: 0.0001346
inclination: 98.1106°
perigee height: 668 km
apogee height: 670 km
right ascension of ascending node: 87.4856°
argument of perigee: 86.8976°
revolutions per day: 14.67525849
mean anomaly at epoch: 273.2378°
orbit number at epoch: 42135

The dashed part of the orbit path shows where the satellite is in the earth's shadow,  

DLR